SMAP

Last updated on Sat Oct 25 2025 00:02:32 GMT+0000 (Coordinated Universal Time)

1 40376U 15003A 25297.66094329 .00000849 00000+0 17339-3 0 9999 2 40376 98.1306 303.0843 0001781 95.4813 264.6592 14.63387875573176
UTC large
Height (km)
Speed (km/s)
/
Latitude / Longitude
Inclination (degrees)
Orbital Period (minutes)
Azimuth
Elevation
Range (km)
Doppler Factor

Next 0 passes for location: London (51.5072 / 0.1276)

Sorry there are no passes over London.